RYR1892 LIME-LEPA

Flight info

Callsign RYR1892
Flight time 1h 26m
Altitude 35000
Route VOG DCT GEKBA DCT VAMTU DCT KOLON DCT GANGU DCT PADKO DCT VATIR DCT PIVUS DCT BODEQ DCT VERSO L129 LUNIK
Aircraft A320/M-SDE3FGHIRWY/LB1

Departure

Time 2026-05-07 22:07
Airport Il Caravaggio International Airport (LIME)

Arrival

Time 2026-05-07 23:33
Airport Palma de Mallorca Airport (LEPA)
Time Latitude Longitude Altitude Speed Heading
2026-05-07 21:40 45.66622 9.70113 787 ft 0 kts 194°
2026-05-07 21:58 45.66634 9.70117 787 ft 4 kts 193°
2026-05-07 21:58 45.66661 9.70125 787 ft 4 kts 189°
2026-05-07 21:59 45.66687 9.70130 787 ft 4 kts 180°
2026-05-07 21:59 45.66713 9.70125 787 ft 4 kts 143°
2026-05-07 21:59 45.66722 9.70109 787 ft 1 kts 104°
2026-05-07 21:59 45.66722 9.70106 787 ft 0 kts 104°
2026-05-07 22:01 45.66722 9.70108 787 ft 1 kts 104°
2026-05-07 22:02 45.66703 9.70219 787 ft 14 kts 103°
2026-05-07 22:02 45.66685 9.70314 787 ft 16 kts 105°
2026-05-07 22:02 45.66654 9.70481 787 ft 19 kts 105°
2026-05-07 22:02 45.66619 9.70665 787 ft 19 kts 105°
2026-05-07 22:03 45.66584 9.70860 787 ft 21 kts 104°
2026-05-07 22:03 45.66550 9.71039 787 ft 18 kts 104°
2026-05-07 22:03 45.66503 9.71219 787 ft 21 kts 109°
2026-05-07 22:03 45.66463 9.71423 787 ft 22 kts 105°
2026-05-07 22:04 45.66440 9.71631 787 ft 17 kts 82°
2026-05-07 22:04 45.66470 9.71790 787 ft 17 kts 77°
2026-05-07 22:04 45.66453 9.71969 787 ft 20 kts 105°
2026-05-07 22:04 45.66417 9.72172 787 ft 22 kts 104°
2026-05-07 22:05 45.66379 9.72383 787 ft 20 kts 103°
2026-05-07 22:05 45.66391 9.72559 787 ft 13 kts 63°
2026-05-07 22:05 45.66446 9.72510 787 ft 14 kts 276°
2026-05-07 22:05 45.66451 9.72478 787 ft 0 kts 285°
2026-05-07 22:06 45.66487 9.72290 787 ft 53 kts 285°
2026-05-07 22:06 45.66642 9.71451 788 ft 118 kts 284°
2026-05-07 22:06 45.66891 9.70085 823 ft 161 kts 284°
2026-05-07 22:06 45.67154 9.68516 1310 ft 168 kts 284°
2026-05-07 22:07 45.67228 9.66792 1824 ft 180 kts 262°
2026-05-07 22:07 45.66738 9.65111 2354 ft 189 kts 231°
2026-05-07 22:07 45.65681 9.63943 2859 ft 198 kts 205°
2026-05-07 22:07 45.64417 9.62983 3296 ft 216 kts 218°
2026-05-07 22:08 45.63314 9.61430 3836 ft 233 kts 226°
2026-05-07 22:08 45.62153 9.59712 4400 ft 244 kts 225°
2026-05-07 22:08 45.60961 9.57954 4968 ft 247 kts 225°
2026-05-07 22:08 45.59753 9.56177 5523 ft 250 kts 225°
2026-05-07 22:09 45.58548 9.54420 6081 ft 251 kts 225°
2026-05-07 22:09 45.57308 9.52645 6638 ft 253 kts 224°
2026-05-07 22:09 45.56057 9.50865 7177 ft 254 kts 224°
2026-05-07 22:09 45.54775 9.49031 7753 ft 268 kts 225°
2026-05-07 22:10 45.53432 9.47100 8305 ft 278 kts 225°
2026-05-07 22:10 45.52061 9.45122 8878 ft 281 kts 225°
2026-05-07 22:10 45.50696 9.43149 9452 ft 283 kts 225°
2026-05-07 22:10 45.49309 9.41145 10029 ft 285 kts 225°
2026-05-07 22:11 45.47748 9.39281 10469 ft 301 kts 213°
2026-05-07 22:11 45.45890 9.37701 10893 ft 317 kts 210°
2026-05-07 22:11 45.43932 9.36083 11322 ft 332 kts 210°
2026-05-07 22:11 45.41916 9.34416 11751 ft 345 kts 211°
2026-05-07 22:12 45.39803 9.32667 12216 ft 357 kts 211°
2026-05-07 22:12 45.37624 9.30861 12684 ft 367 kts 211°
2026-05-07 22:12 45.35380 9.28998 13158 ft 377 kts 211°
2026-05-07 22:12 45.33077 9.27086 13649 ft 387 kts 211°
2026-05-07 22:13 45.30721 9.25134 14100 ft 395 kts 211°
2026-05-07 22:13 45.28347 9.23174 14526 ft 403 kts 211°
2026-05-07 22:13 45.25903 9.21161 15011 ft 407 kts 211°
2026-05-07 22:13 45.23435 9.19129 15505 ft 410 kts 211°
2026-05-07 22:14 45.20949 9.17081 16010 ft 413 kts 211°
2026-05-07 22:14 45.18483 9.15048 16522 ft 416 kts 211°
2026-05-07 22:14 45.15962 9.12975 17050 ft 419 kts 211°
2026-05-07 22:14 45.13426 9.10894 17633 ft 420 kts 211°
2026-05-07 22:15 45.10893 9.08816 18226 ft 421 kts 211°
2026-05-07 22:15 45.08351 9.06733 18753 ft 422 kts 211°
2026-05-07 22:15 45.05800 9.04646 19287 ft 423 kts 211°
2026-05-07 22:15 45.03249 9.02562 19823 ft 424 kts 211°
2026-05-07 22:16 45.00729 9.00501 20364 ft 424 kts 211°
2026-05-07 22:16 44.98211 8.98330 20918 ft 423 kts 216°
2026-05-07 22:16 44.95938 8.95721 21486 ft 421 kts 224°
2026-05-07 22:16 44.93965 8.92671 22064 ft 418 kts 232°
2026-05-07 22:17 44.92143 8.89465 22661 ft 416 kts 232°
2026-05-07 22:17 44.90330 8.86292 23263 ft 415 kts 232°
2026-05-07 22:17 44.88511 8.83123 23799 ft 414 kts 232°
2026-05-07 22:17 44.86716 8.80001 24216 ft 414 kts 232°
2026-05-07 22:18 44.84893 8.76835 24643 ft 414 kts 232°
2026-05-07 22:18 44.81263 8.70524 25524 ft 414 kts 232°
2026-05-07 22:18 44.79477 8.67418 25961 ft 413 kts 232°
2026-05-07 22:19 44.77670 8.64280 26422 ft 413 kts 232°
2026-05-07 22:19 44.75855 8.61141 26874 ft 412 kts 232°
2026-05-07 22:19 44.74044 8.58016 27347 ft 412 kts 232°
2026-05-07 22:19 44.72233 8.54892 27823 ft 411 kts 232°
2026-05-07 22:20 44.70425 8.51777 28303 ft 409 kts 232°
2026-05-07 22:20 44.68643 8.48713 28797 ft 408 kts 232°
2026-05-07 22:20 44.66849 8.45628 29299 ft 407 kts 232°
2026-05-07 22:20 44.65057 8.42547 29817 ft 405 kts 232°
2026-05-07 22:21 44.63275 8.39482 30297 ft 403 kts 232°
2026-05-07 22:21 44.61521 8.36473 30728 ft 402 kts 232°
2026-05-07 22:21 44.59752 8.33442 31180 ft 400 kts 232°
2026-05-07 22:21 44.57990 8.30423 31635 ft 398 kts 232°
2026-05-07 22:22 44.56236 8.27416 32093 ft 397 kts 232°
2026-05-07 22:22 44.54489 8.24421 32563 ft 395 kts 232°
2026-05-07 22:22 44.52746 8.21440 33054 ft 393 kts 231°
2026-05-07 22:22 44.51014 8.18486 33535 ft 391 kts 231°
2026-05-07 22:23 44.49289 8.15549 34030 ft 389 kts 231°
2026-05-07 22:23 44.47594 8.12666 34453 ft 387 kts 231°
2026-05-07 22:23 44.45883 8.09755 34881 ft 385 kts 231°
2026-05-07 22:23 44.44165 8.06835 35026 ft 390 kts 231°
2026-05-07 22:24 44.42421 8.03870 35057 ft 398 kts 231°
2026-05-07 22:24 44.38885 7.97861 35055 ft 405 kts 231°
2026-05-07 22:25 44.35284 7.91777 35048 ft 406 kts 231°
2026-05-07 22:25 44.31666 7.85700 35054 ft 406 kts 231°
2026-05-07 22:26 44.28050 7.79627 35047 ft 406 kts 231°
2026-05-07 22:26 44.24007 7.74160 35058 ft 408 kts 223°
2026-05-07 22:27 44.19746 7.68904 35063 ft 408 kts 223°
2026-05-07 22:27 44.15503 7.63688 35069 ft 408 kts 223°
2026-05-07 22:28 44.11668 7.57885 35068 ft 407 kts 230°
2026-05-07 22:28 44.07946 7.51919 35071 ft 407 kts 230°
2026-05-07 22:29 44.04226 7.45990 35070 ft 407 kts 230°
2026-05-07 22:29 44.00615 7.40244 35071 ft 407 kts 230°
2026-05-07 22:30 43.96901 7.34351 35063 ft 407 kts 230°
2026-05-07 22:30 43.93164 7.28427 35061 ft 407 kts 230°
2026-05-07 22:31 43.89445 7.22533 35047 ft 408 kts 230°
2026-05-07 22:31 43.85693 7.16596 35054 ft 408 kts 230°
2026-05-07 22:32 43.81981 7.10728 35054 ft 408 kts 229°
2026-05-07 22:32 43.78224 7.04813 35055 ft 409 kts 229°
2026-05-07 22:33 43.74481 6.98932 35055 ft 409 kts 230°
2026-05-07 22:33 43.71338 6.92412 35056 ft 409 kts 245°
2026-05-07 22:34 43.69208 6.85157 35053 ft 410 kts 246°
2026-05-07 22:34 43.67059 6.77850 35057 ft 410 kts 246°
2026-05-07 22:35 43.64900 6.70548 35059 ft 410 kts 246°
2026-05-07 22:35 43.62743 6.63308 35061 ft 410 kts 246°
2026-05-07 22:36 43.60565 6.55990 35063 ft 411 kts 246°
2026-05-07 22:36 43.58407 6.48730 35060 ft 411 kts 246°
2026-05-07 22:37 43.56229 6.41424 35056 ft 411 kts 246°
2026-05-07 22:37 43.54054 6.34177 35056 ft 412 kts 246°
2026-05-07 22:38 43.51853 6.26872 35052 ft 412 kts 246°
2026-05-07 22:38 43.49647 6.19564 35055 ft 412 kts 246°
2026-05-07 22:39 43.47450 6.12315 35053 ft 413 kts 246°
2026-05-07 22:39 43.45235 6.05007 35054 ft 413 kts 246°
2026-05-07 22:40 43.43017 5.97693 35055 ft 413 kts 246°
2026-05-07 22:40 43.40808 5.90449 35058 ft 413 kts 246°
2026-05-07 22:41 43.38569 5.83142 35054 ft 413 kts 246°
2026-05-07 22:41 43.36348 5.75892 35058 ft 414 kts 246°
2026-05-07 22:42 43.34111 5.68587 35056 ft 414 kts 246°
2026-05-07 22:42 43.31866 5.61290 35059 ft 413 kts 246°
2026-05-07 22:43 43.29625 5.54066 35054 ft 413 kts 246°
2026-05-07 22:43 43.27367 5.46809 35054 ft 413 kts 246°
2026-05-07 22:44 43.25121 5.39589 35049 ft 413 kts 246°
2026-05-07 22:44 43.22296 5.32747 35048 ft 414 kts 232°
2026-05-07 22:45 43.18109 5.27350 35041 ft 416 kts 223°
2026-05-07 22:45 43.13698 5.22192 35041 ft 416 kts 223°
2026-05-07 22:46 43.09285 5.17031 35036 ft 417 kts 223°
2026-05-07 22:46 43.04896 5.11904 35045 ft 417 kts 223°
2026-05-07 22:47 43.00475 5.06740 35041 ft 417 kts 223°
2026-05-07 22:47 42.96065 5.01616 35044 ft 418 kts 223°
2026-05-07 22:48 42.91621 4.96461 35046 ft 418 kts 223°
2026-05-07 22:48 42.87197 4.91329 35049 ft 417 kts 223°
2026-05-07 22:49 42.82794 4.86232 35048 ft 417 kts 223°
2026-05-07 22:49 42.78366 4.81129 35049 ft 417 kts 223°
2026-05-07 22:50 42.74671 4.76876 35049 ft 417 kts 223°
2026-05-07 22:50 42.70235 4.71779 35046 ft 416 kts 223°
2026-05-07 22:51 42.65832 4.66717 35045 ft 416 kts 223°
2026-05-07 22:51 42.61403 4.61635 35045 ft 416 kts 223°
2026-05-07 22:52 42.56972 4.56569 35042 ft 416 kts 223°
2026-05-07 22:52 42.52571 4.51546 35040 ft 416 kts 223°
2026-05-07 22:53 42.48133 4.46493 35040 ft 415 kts 223°
2026-05-07 22:53 42.43699 4.41454 35043 ft 415 kts 223°
2026-05-07 22:54 42.39299 4.36458 35039 ft 415 kts 223°
2026-05-07 22:54 42.34869 4.31436 35039 ft 415 kts 223°
2026-05-07 22:55 42.30429 4.26422 35037 ft 415 kts 223°
2026-05-07 22:55 42.25992 4.21425 35036 ft 415 kts 223°
2026-05-07 22:56 42.21589 4.16467 35038 ft 414 kts 223°
2026-05-07 22:56 42.17101 4.11570 35038 ft 417 kts 218°
2026-05-07 22:57 42.12047 4.07731 35035 ft 419 kts 213°
2026-05-07 22:57 42.06908 4.03976 35035 ft 419 kts 213°
2026-05-07 22:58 42.01779 4.00235 35034 ft 419 kts 213°
2026-05-07 22:58 41.96681 3.96508 35036 ft 418 kts 213°
2026-05-07 22:59 41.91354 3.93244 35035 ft 426 kts 201°
2026-05-07 22:59 41.85496 3.91772 35035 ft 431 kts 196°
2026-05-07 23:00 41.79571 3.90418 35034 ft 430 kts 196°
2026-05-07 23:00 41.73665 3.89044 35039 ft 430 kts 196°
2026-05-07 23:01 41.67803 3.87682 35034 ft 430 kts 196°
2026-05-07 23:01 41.61897 3.86329 35037 ft 430 kts 196°
2026-05-07 23:02 41.55993 3.84974 35037 ft 430 kts 196°
2026-05-07 23:02 41.50133 3.83632 35032 ft 429 kts 196°
2026-05-07 23:03 41.44233 3.82276 35032 ft 429 kts 196°
2026-05-07 23:03 41.38374 3.80933 35033 ft 429 kts 196°
2026-05-07 23:04 41.32479 3.79588 35034 ft 429 kts 196°
2026-05-07 23:04 41.26590 3.78247 35030 ft 429 kts 196°
2026-05-07 23:05 41.20703 3.76917 35037 ft 429 kts 196°
2026-05-07 23:05 41.14855 3.75398 35034 ft 423 kts 203°
2026-05-07 23:06 41.09420 3.72657 35035 ft 419 kts 207°
2026-05-07 23:06 41.03970 3.69839 35032 ft 419 kts 207°
2026-05-07 23:07 40.98568 3.67064 35035 ft 419 kts 207°
2026-05-07 23:07 40.93127 3.64274 35030 ft 418 kts 207°
2026-05-07 23:08 40.87729 3.61500 34741 ft 417 kts 207°
2026-05-07 23:08 40.85033 3.60114 34301 ft 415 kts 207°
2026-05-07 23:08 40.82342 3.58737 33854 ft 413 kts 207°
2026-05-07 23:08 40.79656 3.57364 33364 ft 413 kts 207°
2026-05-07 23:09 40.76997 3.56006 32872 ft 414 kts 207°
2026-05-07 23:09 40.74287 3.54625 32385 ft 416 kts 207°
2026-05-07 23:09 40.71582 3.53252 31922 ft 418 kts 206°
2026-05-07 23:09 40.68855 3.51867 31456 ft 420 kts 206°
2026-05-07 23:10 40.66151 3.50490 31005 ft 421 kts 206°
2026-05-07 23:10 40.63413 3.49094 30557 ft 423 kts 206°
2026-05-07 23:10 40.60658 3.47689 30117 ft 425 kts 206°
2026-05-07 23:10 40.57888 3.46280 29604 ft 427 kts 206°
2026-05-07 23:11 40.55107 3.44871 29083 ft 429 kts 205°
2026-05-07 23:11 40.52341 3.43473 28596 ft 431 kts 205°
2026-05-07 23:11 40.49522 3.42047 28104 ft 434 kts 205°
2026-05-07 23:11 40.46688 3.40631 27620 ft 438 kts 203°
2026-05-07 23:12 40.43700 3.39660 27144 ft 446 kts 193°
2026-05-07 23:12 40.40618 3.39415 26685 ft 455 kts 183°
2026-05-07 23:12 40.37434 3.39602 26221 ft 458 kts 182°
2026-05-07 23:12 40.34229 3.39797 25766 ft 460 kts 182°
2026-05-07 23:13 40.31022 3.39988 25322 ft 462 kts 182°
2026-05-07 23:13 40.27797 3.40173 24886 ft 464 kts 181°
2026-05-07 23:13 40.24560 3.40353 24452 ft 466 kts 181°
2026-05-07 23:13 40.21323 3.40529 24029 ft 464 kts 181°
2026-05-07 23:14 40.18133 3.40705 23616 ft 463 kts 181°
2026-05-07 23:14 40.14906 3.40887 23128 ft 461 kts 181°
2026-05-07 23:14 40.11712 3.41069 22632 ft 458 kts 181°
2026-05-07 23:14 40.08521 3.41251 22148 ft 455 kts 181°
2026-05-07 23:15 40.05407 3.41432 21680 ft 453 kts 181°
2026-05-07 23:15 40.02261 3.41615 21213 ft 450 kts 181°
2026-05-07 23:15 39.99137 3.41795 20755 ft 447 kts 181°
2026-05-07 23:15 39.96030 3.41972 20306 ft 445 kts 181°
2026-05-07 23:16 39.92944 3.42148 19860 ft 442 kts 180°
2026-05-07 23:16 39.89869 3.42323 19419 ft 440 kts 180°
2026-05-07 23:16 39.86854 3.42492 18991 ft 437 kts 180°
2026-05-07 23:16 39.83819 3.42661 18563 ft 435 kts 180°
2026-05-07 23:17 39.80804 3.42823 18124 ft 433 kts 180°
2026-05-07 23:17 39.77789 3.42980 17641 ft 429 kts 180°
2026-05-07 23:17 39.74853 3.42911 17155 ft 413 kts 190°
2026-05-07 23:17 39.72133 3.41967 16684 ft 398 kts 205°
2026-05-07 23:18 39.69768 3.40203 16222 ft 388 kts 219°
2026-05-07 23:18 39.67865 3.37791 15769 ft 379 kts 232°
2026-05-07 23:18 39.66509 3.34957 15381 ft 370 kts 243°
2026-05-07 23:18 39.65376 3.31999 15009 ft 361 kts 243°
2026-05-07 23:19 39.64266 3.29117 14650 ft 352 kts 243°
2026-05-07 23:19 39.63176 3.26304 14285 ft 345 kts 243°
2026-05-07 23:19 39.62107 3.23549 13919 ft 338 kts 243°
2026-05-07 23:19 39.61055 3.20839 13538 ft 332 kts 243°
2026-05-07 23:20 39.60041 3.18216 13156 ft 327 kts 243°
2026-05-07 23:20 39.59026 3.15589 12767 ft 323 kts 243°
2026-05-07 23:20 39.58021 3.12995 12377 ft 319 kts 243°
2026-05-07 23:20 39.57191 3.10858 12056 ft 316 kts 243°
2026-05-07 23:21 39.56203 3.08323 11674 ft 314 kts 243°
2026-05-07 23:21 39.55222 3.05805 11295 ft 311 kts 243°
2026-05-07 23:21 39.54249 3.03303 10928 ft 309 kts 243°
2026-05-07 23:21 39.53282 3.00822 10561 ft 308 kts 243°
2026-05-07 23:22 39.52330 2.98377 10202 ft 306 kts 242°
2026-05-07 23:22 39.51374 2.95920 9843 ft 304 kts 242°
2026-05-07 23:22 39.50425 2.93486 9442 ft 298 kts 242°
2026-05-07 23:22 39.49509 2.91137 9051 ft 288 kts 242°
2026-05-07 23:23 39.48611 2.88838 8663 ft 284 kts 242°
2026-05-07 23:23 39.47727 2.86576 8277 ft 276 kts 242°
2026-05-07 23:23 39.46873 2.84395 7898 ft 268 kts 242°
2026-05-07 23:23 39.46051 2.82298 7524 ft 260 kts 242°
2026-05-07 23:24 39.45243 2.80237 7157 ft 254 kts 242°
2026-05-07 23:24 39.44453 2.78218 6783 ft 247 kts 242°
2026-05-07 23:24 39.43731 2.76229 6421 ft 241 kts 250°
2026-05-07 23:24 39.43356 2.74144 6043 ft 236 kts 263°
2026-05-07 23:25 39.43178 2.72062 5763 ft 231 kts 263°
2026-05-07 23:25 39.43000 2.70045 5553 ft 224 kts 263°
2026-05-07 23:25 39.42822 2.68066 5302 ft 220 kts 263°
2026-05-07 23:25 39.42643 2.66118 5022 ft 215 kts 263°
2026-05-07 23:26 39.42467 2.64217 4743 ft 209 kts 262°
2026-05-07 23:26 39.42295 2.62370 4464 ft 204 kts 262°
2026-05-07 23:26 39.42131 2.60575 4183 ft 202 kts 263°
2026-05-07 23:26 39.41965 2.58778 3906 ft 201 kts 263°
2026-05-07 23:27 39.41648 2.55182 3348 ft 200 kts 268°
2026-05-07 23:27 39.41948 2.53469 3077 ft 198 kts 301°
2026-05-07 23:27 39.42897 2.52227 2985 ft 195 kts 334°
2026-05-07 23:28 39.44182 2.51799 2996 ft 190 kts
2026-05-07 23:28 39.45426 2.52247 2999 ft 185 kts 34°
2026-05-07 23:28 39.46306 2.53363 2999 ft 174 kts 60°
2026-05-07 23:28 39.46941 2.54698 2884 ft 172 kts 60°
2026-05-07 23:29 39.47562 2.56007 2707 ft 170 kts 60°
2026-05-07 23:29 39.48175 2.57296 2486 ft 169 kts 60°
2026-05-07 23:29 39.48792 2.58593 2265 ft 167 kts 60°
2026-05-07 23:29 39.49371 2.59808 2070 ft 148 kts 60°
2026-05-07 23:30 39.49897 2.60916 1875 ft 140 kts 60°
2026-05-07 23:30 39.50404 2.61983 1681 ft 138 kts 60°
2026-05-07 23:30 39.50895 2.63018 1491 ft 135 kts 59°
2026-05-07 23:30 39.51395 2.64048 1293 ft 134 kts 59°
2026-05-07 23:31 39.51884 2.65092 1093 ft 135 kts 59°
2026-05-07 23:31 39.52362 2.66127 919 ft 133 kts 59°
2026-05-07 23:31 39.52863 2.67191 756 ft 141 kts 58°
2026-05-07 23:31 39.53394 2.68280 589 ft 144 kts 56°
2026-05-07 23:32 39.53895 2.69329 383 ft 136 kts 59°
2026-05-07 23:32 39.54390 2.70391 189 ft 139 kts 58°
2026-05-07 23:32 39.54899 2.71461 34 ft 131 kts 58°
2026-05-07 23:32 39.55305 2.72322 28 ft 88 kts 58°
2026-05-07 23:33 39.55505 2.72756 27 ft 24 kts 79°
2026-05-07 23:33 39.55499 2.72960 26 ft 15 kts 91°
2026-05-07 23:33 39.55497 2.73111 26 ft 18 kts 88°
2026-05-07 23:33 39.55546 2.73266 27 ft 21 kts 59°
2026-05-07 23:34 39.55616 2.73420 26 ft 15 kts 59°
2026-05-07 23:34 39.55616 2.73509 27 ft 11 kts 144°
2026-05-07 23:34 39.55543 2.73561 30 ft 13 kts 152°
2026-05-07 23:34 39.55462 2.73622 33 ft 14 kts 147°
2026-05-07 23:35 39.55377 2.73691 36 ft 15 kts 148°
2026-05-07 23:35 39.55279 2.73770 35 ft 18 kts 148°
2026-05-07 23:35 39.55196 2.73824 36 ft 6 kts 180°
2026-05-07 23:35 39.55161 2.73777 36 ft 8 kts 214°
2026-05-07 23:36 39.55101 2.73802 36 ft 11 kts 149°
2026-05-07 23:36 39.55051 2.73827 36 ft 6 kts 196°
2026-05-07 23:36 39.55024 2.73772 35 ft 7 kts 238°
2026-05-07 23:36 39.55000 2.73721 35 ft 2 kts 238°
2026-05-07 23:37 39.54994 2.73709 36 ft 0 kts 238°